Flag for Central African Republic

Past Weather in Bimbo, Central African Republic — Yesterday and Last 2 Weeks

Now
86 °F

Scattered clouds.


Feels Like: 93 °F
Forecast: 91 / 71 °F
Wind: 5 mph from Southwest

Location: Bangui Airport
Current Time: Sep 29, 2020 at 10:44:32 am
Latest Report: Sep 29, 2020 at 10:00 am
Visibility: N/A
Pressure29.95 "Hg
Humidity: 66%
Dew Point: 73 °F
Location of BimboLocation

Past Weather in Bimbo — Graph

°F

Bimbo Temperature Yesterday

Maximum temperature yesterday: 81 °F (at 12:00 pm)
Minimum temperature yesterday: 72 °F (at 10:00 pm)
Average temperature yesterday: 76 °F

High & Low Weather Summary for the Past Weeks

 TemperatureHumidityPressure
High95 °F (Sep 24, 1:00 pm)100% (Sep 17, 11:00 pm)29.98 "Hg (Sep 17, 11:00 pm)
Low70 °F (Sep 18, 6:00 am)49% (Sep 20, 4:00 pm)29.68 "Hg (Sep 27, 3:00 pm)
Average80 °F80%29.86 "Hg
* Reported Sep 14 9:00 am — Sep 29 9:00 am, Bimbo. Weather by CustomWeather, © 2020

Note: Actual official high and low records may vary slightly from our data, if they occured in-between our weather recording intervals... More about our weather records

Bimbo Weather History for the Previous 24 Hours

Scroll right to see more
 ConditionsComfort  
Time TempWeatherWind HumidityBarometerVisibility
9:00 am
Tue, Sep 29
82 °FPartly sunny.5 mph74%29.95 "HgN/A
8:00 am79 °FScattered clouds.5 mph84%29.95 "Hg5 mi
7:00 am73 °FScattered clouds.2 mph94%29.92 "Hg5 mi
6:00 am72 °FPassing clouds.3 mph94%29.89 "Hg4 mi
5:00 am72 °FLight rain. Passing clouds.No wind94%29.89 "Hg5 mi
4:00 am72 °FPassing clouds.No wind94%29.89 "Hg5 mi
3:00 am72 °FPassing clouds.No wind94%29.89 "Hg4 mi
2:00 am72 °FPassing clouds.No wind94%29.89 "Hg5 mi
1:00 am72 °FPassing clouds.No wind94%29.89 "Hg5 mi
12:00 am72 °FPassing clouds.No wind94%29.89 "HgN/A
11:00 pm
Mon, Sep 28
72 °FPassing clouds.No wind94%29.92 "HgN/A
10:00 pm72 °FPassing clouds.3 mph94%29.92 "HgN/A
9:00 pm73 °FPassing clouds.3 mph89%29.89 "HgN/A
8:00 pm73 °FPassing clouds.3 mph89%29.89 "HgN/A
7:00 pm73 °FPassing clouds.5 mph89%29.86 "HgN/A
6:00 pm75 °FLight rain. Passing clouds.6 mph94%29.83 "HgN/A
5:00 pm75 °FLight rain. Partly sunny.3 mph94%29.83 "HgN/A
4:00 pm79 °FLight rain. Partly sunny.3 mph84%29.80 "HgN/A
3:00 pm79 °FLight rain. Partly sunny.3 mph84%29.80 "HgN/A
2:00 pm81 °FLight rain. Partly sunny.3 mph79%29.83 "HgN/A
1:00 pm81 °FPartly sunny.12 mph79%29.83 "HgN/A
12:00 pm81 °FPartly sunny.5 mph79%29.86 "HgN/A
11:00 am79 °FPartly sunny.12 mph84%29.92 "HgN/A
10:00 am79 °FPartly sunny.9 mph84%29.92 "HgN/A
Weather by CustomWeather, © 2020

See weather overview